Andover, NJ

8:08 AM EST on January 23, 2018 (GMT -0500)
Andover

Weather History for K12N - January, 2013

Change the Weather History Date:

Wednesday, January 23, 2013

  Actual Average (KFWN) Record (KFWN)
Temperature  
Mean Temperature 12 °F -  
Max Temperature 16 °F 34 °F 62 °F (2009)
Min Temperature 7 °F 12 °F -25 °F (1961)
Degree Days  
Heating Degree Days 54    
Moisture  
Dew Point -3 °F    
Average Humidity 57    
Maximum Humidity 80    
Minimum Humidity 38    
Precipitation  
Precipitation 0.14 in - - ()
Sea Level Pressure  
Sea Level Pressure 30.23 in    
Wind  
Wind Speed 4 mph (West)    
Max Wind Speed 10 mph    
Max Gust Speed 17 mph    
Averages and records for this station are not official NWS values.
T = Trace of Precipitation, MM = Missing Value Source: NWS Daily Summary

Daily Weather History Graph

Daily Weather History Graph

Search for Another Location

Airport or City:

Trip Planner

Search our weather history database for the weather conditions in past years. The results will help you decide how hot, cold, wet, or windy it might be!

Date:

Astronomy

Jan. 23, 2013 Rise Set
Actual Time 7:17 AM EST 5:05 PM EST
Civil Twilight 6:47 AM EST 5:34 PM EST
Nautical Twilight 6:13 AM EST 6:08 PM EST
Astronomical Twilight 5:41 AM EST 6:40 PM EST
Moon 2:13 PM EST 4:26 AM EST
Length of Visible Light 10h 47m
Length of Day
9h 48m
Waxing Gibbous, 89% of the Moon is Illuminated
Jan 23
Waxing Gibbous
Jan 26
Full
Feb 3
Last Quarter
Feb 10
New
Feb 17
First Quarter

Hourly Weather History & Observations

Time (EST) Temp. Windchill Dew Point Humidity Pressure Visibility Wind Dir Wind Speed Gust Speed Precip Events Conditions
12:54 AM 9.0 °F 0.6 °F -7.1 °F 48% 30.21 in - Variable 4.6 mph - N/A   Unknown
1:54 AM 9.0 °F 2.4 °F -7.1 °F 48% 30.23 in - Variable 3.5 mph - N/A   Unknown
2:54 AM 8.1 °F -0.5 °F -6.0 °F 53% 30.24 in - Variable 4.6 mph - N/A   Unknown
3:54 AM 8.1 °F - -6.0 °F 53% 30.24 in - Calm Calm - N/A   Unknown
4:54 AM 7.0 °F -1.7 °F -5.1 °F 58% 30.25 in - Variable 4.6 mph - N/A   Unknown
5:54 AM 7.0 °F -1.7 °F -5.1 °F 58% 30.25 in - SW 4.6 mph - 0.02 in   Unknown
6:54 AM 7.0 °F 0.1 °F -4.0 °F 61% 30.25 in - SW 3.5 mph - N/A   Unknown
7:54 AM 7.0 °F - -2.9 °F 64% 30.25 in - Calm Calm - N/A   Unknown
8:54 AM 10.0 °F 1.8 °F -2.0 °F 58% 30.27 in - Variable 4.6 mph - N/A   Unknown
9:54 AM 12.0 °F 0.5 °F -2.0 °F 53% 30.28 in - WNW 8.1 mph - N/A   Unknown
10:54 AM 12.9 °F 6.9 °F -2.9 °F 49% 30.27 in - Variable 3.5 mph - N/A   Unknown
11:54 AM 15.1 °F 2.5 °F -2.9 °F 45% 30.23 in - WSW 10.4 mph 17.3 mph N/A   Unknown
12:54 PM 16.0 °F 6.3 °F -6.0 °F 38% 30.20 in - Variable 6.9 mph 16.1 mph N/A   Unknown
1:54 PM 16.0 °F 5.3 °F -6.0 °F 38% 30.19 in - WNW 8.1 mph 17.3 mph 0.02 in   Unknown
2:54 PM 16.0 °F 6.3 °F -6.0 °F 38% 30.20 in - Variable 6.9 mph - 0.03 in   Unknown
3:54 PM 16.0 °F 8.8 °F -2.9 °F 43% 30.20 in - Variable 4.6 mph - 0.03 in   Unknown
4:54 PM 14.0 °F 6.5 °F -0.9 °F 52% 30.21 in - Variable 4.6 mph - N/A   Unknown
5:54 PM 12.9 °F - -0.9 °F 54% 30.22 in - Calm Calm - 0.02 in   Unknown
6:54 PM 12.0 °F - 1.0 °F 61% 30.23 in - Calm Calm - 0.02 in   Unknown
7:54 PM 10.0 °F - 1.9 °F 70% 30.22 in - Calm Calm - N/A   Unknown
8:54 PM 9.0 °F - 3.0 °F 77% 30.22 in - Calm Calm - N/A   Unknown
9:54 PM 8.1 °F - 3.0 °F 80% 30.22 in - Calm Calm - N/A   Unknown
10:54 PM 7.0 °F - 1.9 °F 80% 30.22 in - Calm Calm - N/A   Unknown
11:54 PM 7.0 °F - 1.9 °F 80% 30.21 in - Calm Calm - N/A   Unknown